Location: *
(13.2257°S, 48.7193°W)
Time: 10:29:28
(UTC+00:00)

SL-16 R/B - Pass Details

Date: 13 February 2026
Orbit: 985 x 1006 km, 99.8° (Epoch: 11 March)

Event Time Altitude Azimuth Distance (km) Brightness Sun altitude
Rises 06:54:43 0° 149° (SSE) 3,723 6.3 -32.6°
Reaches altitude 10° 06:57:31 10° 138° (SE) 2,766 5.6 -31.9°
Maximum altitude 07:02:52 30° 79° (ENE) 1,681 4.1 -30.8°
Drops below altitude 10° 07:08:09 10° 19° (NNE) 2,736 4.8 -29.6°
Enters shadow 07:08:54 - 16° (NNE) 2,979 4.9 -29.4°
